ONEWEB-0007, 44060

Orbit data source: Space-Track

ONEWEB-0007, 44060 is a payload satellite owned by One Web (UK) in LEO that was launched on Wed, 27 Feb 2019 UTC via a SOYUZ-ST-B launch vehicle from the French Guiana (FRGUI). Payloads include a variety of satellites, spacecraft, and rockets equipped with specific instruments for various scientific and technological missions. These include communications satellites like Starlink; space stations such as the ISS; scientific satellites like the Hubble; Earth observation satellites from companies like Planet Labs, Umbra, and HawkEye 360; GPS; miniature CubeSats for education and research; and military/defense satellites.

Loading next visibility...
ONEWEB-0007 details
Identifier
44060, 2019-010D
Orbit
LEO
Last TLE update17 hours ago
Origin
Flag of UKOne Web (UK)
ManufacturerAirbus/Toulouse
MissionOperational Commercial Communications
Bus & MotorARROW, Unknown motor
Mass148 kg wet, ~140 kg dry
Launch date (UTC)
2019-02-27 (6 years ago)
Launch vehicle
SOYUZ-ST-B
Launch site
French Guiana (FRGUI)
Object type
Payload
Rocket body
Debris
Shape & HBRTrap Box + 2 Pan, 5 m
Radar Cross Section2.957 m², Large (>1 m²)

Expand to show TLE details & history

TLE from 17 hours ago
0 ONEWEB-0007
1 44060U 19010D   25014.47594872  .00000066  00000-0  14115-3 0  9990
2 44060  87.9083   2.4947 0001478  94.9463 265.1836 13.15547514283170
Epoch: 2025-01-14T11:25Z
Definitive object data (Epoch: 2025-01-14T11:25:21.969Z)
Latitude-0.00003°
Longitude76.97106°
Altitude1,204.764 km
Speed7.252 km/s
True Right ascension00h 09m 58s
True Declination0° 00' 00"
Sunlit
Object was in daylight at TLE epoch
Visualization TLE readout
Latitude85.77952°
Longitude-132.66908°
Altitude1,214.472 km
Speed7.254 km/s
Apparent Right ascension16h 32m 24s
Apparent Declination35° 51' 07"
Sunlit
Object is in daylight
Visualization observer readout
Local Sidereal Time04:58:33
Azimuth5.46° NNE
Elevation-13.993°
Doppler factor1
Orbital elements
Apogee altitude1,200.007 km
Perigee altitude1,197.767 km
Semi-major axis7,577.024 km
Eccentricity0.0001478
Inclination87.9083°
RAAN2.4947°
Arg. of periapsis94.9463°
True anomaly265.16672°
Mean anomaly265.1836°
Eccentric anomaly265.17516°
Mean motion3.29075 °/min
BSTAR0.00014115
Orbital period109.4 mins
Loading maneuver chart data...
Loading historical data...
Loading historical data...
Loading historical data...
Loading historical data...
Loading historical data...
Loading historical data...
Loading historical data...

ONEWEB-0007 Visibility forecast

Observer location: undefined°, undefined

Span
Click to sort rows by Start time (UTC) header in descending order
Start Az.
Max El. time (UTC)
Max El. Az.
Max El.
End time (UTC)
End Az.
10 mins2025-01-15 09:56:31.955Z27.526° NE2025-01-15 10:01:31.955Z75.197° E23.005°2025-01-15 10:06:31.955Z124.942° SE
12 mins2025-01-15 11:46:31.955Z346.287° N2025-01-15 11:51:31.955Z278.728° WNW39.994°2025-01-15 11:58:31.955Z199.674° SSW
10 mins2025-01-15 22:14:31.955Z122.945° SE2025-01-15 22:18:31.955Z82.371° E24.483°2025-01-15 22:24:31.955Z24.471° NE
12 mins2025-01-16 00:02:31.955Z203.739° SW2025-01-16 00:07:31.955Z261.454° W38.258°2025-01-16 00:14:31.955Z349.705° N
|